La Vinya d'en Daniel





Hora UTC 20:20
Temperatura 2.7 ºC
Humitat 91.0 %
Pressió 1003.0 hPa
Pluja 0.0 mm
Velocitat vent 0.0 km/h
Direcció vent W

Dades diàries 2021-11-27



Hora UTC (hivern +1h; estiu +2h)
Temperatura (ºC) Humitat (%) Pressió (hPa) Velocitat vent (km/h) Precipitació (mm)
Hora UTC Aire Humitat Pressió Vel. Dir. Vel. Max Dir. Intent. màx 5 min.
00:05 3.5 93.0 1004.4 0.0 NNW 0.0 0.0
00:10 3.4 93.0 1004.3 3.2 NW 9.7 0.0
00:15 3.4 93.0 1004.1 1.6 W 9.7 0.0
00:20 3.7 93.0 1004.0 0.0 NW 8.0 0.0
00:25 3.8 93.0 1003.9 6.4 WSW 11.3 0.0
00:30 3.9 93.0 1003.9 0.0 SW 11.3 0.0
00:35 3.9 92.0 1003.8 0.0 N 6.4 0.0
00:40 3.7 92.0 1003.8 0.0 NNW 4.8 0.0
00:45 3.7 92.0 1003.6 0.0 W 4.8 0.0
00:50 3.8 92.0 1003.6 0.0 WNW 9.7 0.0
00:55 4.1 92.0 1003.6 4.8 NNW 17.7 0.0
01:00 4.3 92.0 1003.4 3.2 NW 17.7 0.0
01:05 4.5 91.0 1003.5 0.0 N 12.9 0.0
01:10 4.5 91.0 1003.3 3.2 W 16.1 0.0
01:15 4.6 90.0 1003.3 0.0 WNW 16.1 0.0
01:20 4.7 90.0 1003.2 1.6 NW 11.3 0.0
01:25 4.7 90.0 1003.0 0.0 WNW 6.4 0.0
01:30 4.6 89.0 1002.8 1.6 NNW 3.2 0.0
01:35 4.1 89.0 1002.7 0.0 NNW 3.2 0.0
01:40 3.7 90.0 1002.6 0.0 N 3.2 0.0
01:45 3.4 91.0 1002.7 1.6 NNE 3.2 0.0
01:50 3.3 91.0 1002.4 3.2 ESE 4.8 0.0
01:55 3.6 91.0 1002.3 0.0 NNW 6.4 0.0
02:00 3.8 91.0 1002.2 1.6 E 4.8 0.0
02:05 3.9 91.0 1002.3 0.0 NW 9.7 0.0
02:10 4.1 89.0 1002.2 0.0 SW 16.1 0.0
02:15 4.4 88.0 1002.1 0.0 SSW 16.1 0.0
02:15 4.7 87.0 1002.0 0.0 NE 19.3 0.0
02:25 4.7 87.0 1001.8 1.6 ENE 19.3 0.0
02:30 4.4 87.0 1001.9 0.0 SE 9.7 0.0
02:35 4.3 87.0 1001.7 0.0 WNW 12.9 0.0
02:40 4.4 87.0 1001.7 0.0 E 12.9 0.0
02:45 4.5 87.0 1001.6 0.0 W 19.3 0.0
02:50 4.3 87.0 1001.6 0.0 SE 12.9 0.0
02:55 4.3 87.0 1001.5 8.0 S 12.9 0.0
03:00 4.4 86.0 1001.4 4.8 ENE 16.1 0.0
03:05 4.6 86.0 1001.2 1.6 ESE 16.1 0.0
03:10 4.7 85.0 1000.9 0.0 ESE 16.1 0.0
03:15 4.5 86.0 1000.7 0.0 SSE 16.1 0.0
03:20 4.5 85.0 1000.6 0.0 E 12.9 0.0
03:25 4.6 85.0 1000.5 3.2 NNW 12.9 0.0
03:30 4.5 85.0 1000.6 0.0 ESE 14.5 0.0
03:35 4.3 85.0 1000.5 11.3 WSW 14.5 0.0
03:40 4.3 85.0 1000.5 0.0 SE 20.9 0.0
03:45 4.3 85.0 1000.7 11.3 SSW 19.3 0.0
03:50 4.2 86.0 1000.4 6.4 SSE 19.3 0.0
03:55 4.0 86.0 1000.5 9.7 S 16.1 0.0
04:00 3.9 86.0 1000.5 0.0 SW 16.1 0.0
04:05 3.8 87.0 1000.5 1.6 SW 22.5 0.0
04:10 3.7 87.0 1000.5 3.2 SW 22.5 0.0
04:10 3.6 87.0 1000.4 14.5 SSW 22.5 0.0
04:15 3.7 87.0 1000.4 6.4 SW 16.1 0.0
04:20 3.6 87.0 1000.4 4.8 SSE 16.1 0.0
04:25 3.6 87.0 1000.3 0.0 WNW 14.5 0.0
04:30 3.5 87.0 1000.3 4.8 WNW 17.7 0.0
04:35 3.6 87.0 1000.1 3.2 SSW 17.7 0.0
04:40 3.4 87.0 1000.0 4.8 S 11.3 0.0
04:45 3.4 87.0 1000.1 4.8 W 12.9 0.0
04:50 3.5 87.0 999.8 3.2 SSW 20.9 0.0
04:55 3.5 86.0 999.7 1.6 NNE 14.5 0.0
05:00 3.6 86.0 999.7 0.0 W 9.7 0.0
05:05 3.6 86.0 999.6 8.0 SSW 12.9 0.0
05:10 3.7 85.0 999.5 3.2 SW 14.5 0.0
05:15 3.8 85.0 999.5 9.7 WSW 14.5 0.0
05:20 3.9 85.0 999.4 1.6 W 14.5 0.0
05:25 3.8 85.0 999.4 0.0 NW 11.3 0.0
05:30 3.8 85.0 999.1 3.2 ENE 11.3 0.0
05:35 3.8 85.0 999.0 8.0 WNW 14.5 0.0
05:45 4.1 85.0 999.0 6.4 NW 22.5 0.0
05:50 4.1 85.0 998.9 11.3 W 20.9 0.0
05:55 4.2 84.0 998.6 6.4 NNE 24.1 0.0
06:00 4.3 84.0 998.8 1.6 N 24.1 0.0
06:05 4.4 84.0 998.6 9.7 NNE 24.1 0.0
06:10 4.7 83.0 998.8 22.5 NNW 35.4 0.0
06:15 4.8 83.0 998.8 17.7 W 41.8 0.0
06:20 4.8 82.0 999.1 4.8 NNW 35.4 0.0
06:25 4.7 83.0 998.9 14.5 WNW 38.6 0.0
06:30 4.7 83.0 998.9 19.3 NW 32.2 0.0
06:35 4.5 84.0 998.7 16.1 NNE 41.8 0.0
06:40 4.3 85.0 998.9 24.1 NNW 41.8 0.0
06:45 4.2 85.0 998.8 9.7 NNW 41.8 0.0
06:50 4.2 86.0 998.7 6.4 WNW 32.2 0.0
06:55 4.4 86.0 998.6 16.1 NNW 40.2 0.0
07:00 4.6 85.0 998.5 12.9 W 40.2 0.0
07:05 4.8 85.0 998.5 17.7 NW 35.4 0.0
07:10 4.9 84.0 998.7 8.0 NNE 30.6 0.0
07:15 5.1 84.0 998.6 8.0 NNE 33.8 0.0
07:20 5.3 83.0 998.4 16.1 NW 33.8 0.0
07:25 5.6 83.0 998.3 27.4 NW 30.6 0.0
07:30 5.8 82.0 998.3 11.3 E 38.6 0.0
07:35 5.9 82.0 998.2 4.8 WSW 38.6 0.0
07:40 6.1 81.0 998.3 8.0 NW 38.6 0.0
07:45 6.3 81.0 998.2 40.2 NNW 40.2 0.0
07:50 6.3 81.0 998.3 8.0 N 43.5 0.0
07:55 6.4 81.0 998.3 25.7 N 43.5 0.0
08:00 6.6 81.0 998.5 9.7 N 35.4 0.0
08:05 6.7 80.0 998.6 3.2 NNE 35.4 0.0
08:10 6.8 80.0 999.1 12.9 NNW 32.2 0.0
08:15 7.0 80.0 999.3 11.3 NW 33.8 0.0
08:20 7.1 80.0 999.6 14.5 N 33.8 0.0
08:25 7.3 79.0 999.5 8.0 NNE 30.6 0.0
08:30 7.3 79.0 999.6 17.7 N 37.0 0.0
08:35 7.3 80.0 999.5 17.7 N 37.0 0.0
08:40 7.4 79.0 999.7 8.0 N 29.0 0.0
08:45 7.4 80.0 999.9 8.0 N 29.0 0.0
08:50 7.4 80.0 999.7 3.2 N 22.5 0.0
08:55 7.3 79.0 999.6 1.6 N 27.4 0.0
09:00 7.3 80.0 999.6 16.1 N 27.4 0.0
09:05 7.3 81.0 999.8 12.9 N 24.1 0.0
09:10 7.4 80.0 999.9 6.4 NNE 24.1 0.0
09:15 7.4 81.0 999.9 3.2 SE 19.3 0.0
09:20 7.5 80.0 1000.1 6.4 NW 19.3 0.0
09:25 7.6 80.0 1000.2 19.3 NW 22.5 0.0
09:30 7.6 80.0 1000.1 8.0 NNE 33.8 0.0
09:35 7.5 80.0 1000.0 6.4 N 33.8 0.0
09:40 7.4 80.0 1000.0 11.3 N 29.0 0.0
09:45 7.4 81.0 1000.0 14.5 NNE 30.6 0.0
09:50 7.6 80.0 999.9 17.7 NNW 22.5 0.0
09:55 7.8 80.0 999.9 0.0 NE 22.5 0.0
10:00 7.9 80.0 999.9 3.2 NNE 20.9 0.0
10:05 8.1 79.0 1000.0 8.0 WNW 29.0 0.0
10:10 8.2 78.0 1000.0 6.4 NE 33.8 0.0
10:15 8.3 78.0 1000.1 12.9 W 25.7 0.0
10:20 8.3 77.0 1000.1 16.1 NNW 25.7 0.0
10:25 8.4 78.0 999.8 3.2 NNE 25.7 0.0
10:30 8.6 77.0 1000.1 8.0 N 22.5 0.0
10:35 8.6 77.0 1000.1 6.4 W 32.2 0.0
10:40 8.6 77.0 999.9 0.0 NW 32.2 0.0
10:40 8.7 77.0 999.9 6.4 NE 32.2 0.0
10:45 8.8 77.0 999.7 12.9 NW 22.5 0.0
10:50 8.8 77.0 999.8 16.1 W 29.0 0.0
10:55 8.9 76.0 999.6 12.9 NNW 29.0 0.0
11:00 9.1 76.0 999.6 16.1 NNE 22.5 0.0
11:05 9.2 76.0 999.6 6.4 NE 25.7 0.0
11:10 9.2 76.0 999.6 6.4 NW 29.0 0.0
11:15 9.3 77.0 999.7 6.4 N 29.0 0.0
11:20 9.5 76.0 999.7 0.0 NNW 22.5 0.0
11:25 9.9 75.0 999.6 4.8 NNE 20.9 0.0
11:30 9.6 73.0 999.6 9.7 N 30.6 0.0
11:35 9.2 75.0 999.7 6.4 N 25.7 0.0
11:40 9.2 76.0 999.6 12.9 NNW 20.9 0.0
11:45 9.1 76.0 999.8 9.7 N 24.1 0.0
11:50 9.0 76.0 999.8 12.9 NNE 24.1 0.0
11:55 9.0 76.0 999.9 6.4 NW 24.1 0.0
12:00 9.1 77.0 999.8 6.4 WNW 22.5 0.0
12:05 9.4 77.0 999.7 1.6 E 20.9 0.0
12:10 9.7 74.0 999.7 6.4 WNW 19.3 0.0
12:20 9.8 75.0 999.7 3.2 WNW 17.7 0.0
12:25 9.8 74.0 999.8 17.7 WNW 25.7 0.0
12:30 9.9 74.0 999.7 16.1 NNW 29.0 0.0
12:35 10.3 74.0 999.6 0.0 NNE 22.5 0.0
12:40 10.4 73.0 999.4 4.8 SSW 24.1 0.0
12:45 10.8 73.0 999.4 24.1 NW 29.0 0.0
12:50 10.6 71.0 999.7 11.3 WSW 29.0 0.0
12:55 10.4 74.0 999.6 1.6 WSW 22.5 0.0
13:00 10.6 72.0 999.6 14.5 NW 20.9 0.0
13:05 10.3 73.0 999.8 6.4 NNW 20.9 0.0
13:10 10.0 74.0 999.8 8.0 N 19.3 0.0
13:15 9.8 75.0 999.8 0.0 N 17.7 0.0
13:20 9.7 75.0 999.8 0.0 N 14.5 0.0
13:25 10.0 76.0 999.6 6.4 WSW 12.9 0.0
13:30 10.4 76.0 999.6 0.0 NW 12.9 0.0
13:35 10.8 75.0 999.4 0.0 SSE 4.8 0.0
13:40 10.8 71.0 999.4 4.8 W 16.1 0.0
13:45 10.8 73.0 999.6 8.0 WNW 16.1 0.0
13:50 10.6 72.0 999.6 0.0 N 12.9 0.0
13:55 10.5 72.0 999.6 9.7 N 9.7 0.0
14:00 10.3 71.0 999.5 3.2 N 12.9 0.0
14:05 10.1 72.0 999.4 4.8 N 12.9 0.0
14:10 10.1 72.0 999.5 3.2 N 12.9 0.0
14:15 10.1 72.0 999.7 3.2 N 9.7 0.0
14:20 10.1 70.0 999.7 0.0 N 9.7 0.0
14:25 10.1 71.0 999.8 0.0 N 8.0 0.0
14:30 10.2 71.0 999.7 0.0 N 8.0 0.0
14:35 10.1 71.0 999.8 0.0 N 4.8 0.0
14:40 10.1 72.0 1000.0 1.6 N 4.8 0.0
14:45 10.1 72.0 1000.3 0.0 N 4.8 0.0
14:50 10.1 71.0 1000.4 1.6 N 4.8 0.0
14:55 10.0 72.0 1000.4 0.0 N 4.8 0.0
15:00 10.0 73.0 1000.4 0.0 N 1.6 0.0
15:05 9.9 73.0 1000.2 0.0 N 1.6 0.0
15:10 9.8 73.0 1000.4 0.0 N 6.4 0.0
15:15 9.7 74.0 1000.3 0.0 N 1.6 0.0
15:20 9.7 76.0 1000.3 0.0 N 1.6 0.0
15:25 9.6 76.0 1000.3 0.0 N 1.6 0.0
15:30 9.5 74.0 1000.5 0.0 N 4.8 0.0
15:35 9.4 74.0 1000.5 4.8 N 8.0 0.0
15:40 9.3 75.0 1000.6 0.0 N 8.0 0.0
15:45 9.2 75.0 1000.7 3.2 N 4.8 0.0
15:50 9.1 75.0 1000.9 4.8 SSW 12.9 0.0
15:55 8.9 76.0 1000.7 8.0 N 17.7 0.0
16:00 8.7 76.0 1000.7 8.0 N 17.7 0.0
16:05 8.6 77.0 1000.7 6.4 N 16.1 0.0
16:10 8.4 78.0 1000.9 0.0 N 9.7 0.0
16:15 8.3 78.0 1001.1 0.0 N 6.4 0.0
16:20 8.2 78.0 1001.1 0.0 N 1.6 0.0
16:25 8.0 80.0 1001.0 0.0 N 1.6 0.0
16:30 7.8 80.0 1001.1 0.0 N 1.6 0.0
16:35 7.6 81.0 1001.1 0.0 N 1.6 0.0
16:40 7.5 81.0 1001.2 0.0 SE 1.6 0.0
16:45 7.4 82.0 1001.2 0.0 NW 3.2 0.0
16:50 7.3 82.0 1001.3 1.6 NW 4.8 0.0
16:55 7.1 83.0 1001.3 0.0 NW 4.8 0.0
17:00 7.0 84.0 1001.2 0.0 WNW 1.6 0.0
17:05 6.8 84.0 1001.3 1.6 WNW 4.8 0.0
17:10 6.6 85.0 1001.3 6.4 W 6.4 0.0
17:15 6.4 86.0 1001.3 3.2 WNW 6.4 0.0
17:20 6.3 87.0 1001.4 0.0 W 9.7 0.0
17:25 6.1 87.0 1001.5 3.2 WNW 9.7 0.0
17:30 6.0 87.0 1001.6 0.0 WNW 6.4 0.0
17:35 5.9 87.0 1001.8 0.0 WNW 3.2 0.0
17:40 5.8 87.0 1001.7 0.0 WNW 0.0 0.0
17:40 5.8 87.0 1001.7 0.0 WNW 1.6 0.0
17:50 5.8 87.0 1002.0 0.0 NW 1.6 0.0
17:55 5.7 87.0 1001.9 0.0 N 3.2 0.0
18:00 5.7 87.0 1002.0 0.0 WNW 4.8 0.0
18:05 5.6 88.0 1002.0 0.0 WNW 4.8 0.0
18:10 5.6 87.0 1002.0 0.0 WNW 0.0 0.0
18:15 5.5 88.0 1002.0 0.0 WNW 3.2 0.0
18:20 5.3 88.0 1002.0 0.0 WNW 3.2 0.0
18:25 5.1 88.0 1002.2 1.6 NW 6.4 0.0
18:30 4.9 89.0 1002.2 4.8 NNW 6.4 0.0
18:35 4.8 89.0 1002.2 4.8 WSW 9.7 0.0
18:40 4.7 89.0 1002.3 4.8 WNW 8.0 0.0
18:45 4.6 89.0 1002.4 0.0 WNW 6.4 0.0
18:45 4.5 89.0 1002.6 0.0 WSW 6.4 0.0
18:55 4.3 89.0 1002.5 0.0 NW 0.0 0.0
19:00 4.3 90.0 1002.5 1.6 WNW 4.8 0.0
19:05 4.2 90.0 1002.4 0.0 NW 4.8 0.0
19:10 4.1 90.0 1002.5 1.6 W 1.6 0.0
19:15 4.0 90.0 1002.6 1.6 W 1.6 0.0
19:20 3.9 90.0 1002.6 0.0 NW 1.6 0.0
19:25 3.8 90.0 1002.8 0.0 NW 1.6 0.0
19:30 3.7 90.0 1002.8 0.0 NW 0.0 0.0
19:35 3.6 90.0 1002.8 0.0 WNW 0.0 0.0
19:40 3.4 91.0 1002.9 0.0 NNW 1.6 0.0
19:45 3.3 91.0 1003.0 0.0 W 1.6 0.0
19:50 3.3 91.0 1003.0 0.0 W 1.6 0.0
19:55 3.3 91.0 1002.9 0.0 NW 1.6 0.0
20:00 3.3 91.0 1003.0 1.6 W 1.6 0.0
20:05 3.1 91.0 1002.9 8.0 WNW 8.0 0.0
20:10 2.9 91.0 1002.9 4.8 WNW 11.3 0.0
20:15 2.8 91.0 1002.9 1.6 W 11.3 0.0
20:20 2.7 91.0 1003.0 0.0 W 9.7 0.0
Màxima 10.9 93.0 1004.4 40.2 NNW 43.5 0.0
Mínima 2.7 70.0 998.2
Total 0.0